Starlink 35295

operational
NORAD ID: 66070 Int'l Des: 2025-235 Owner: SPXS Country: US Constellation: starlink
NOTLE

About Starlink 35295

Description loading...

Live Position

Loading 3D Globe...

Upcoming Passes

Altitude History

Altitude vs Time

uPlot chart will show altitude changes over time

Two-Line Element Set

1 66070U 25235N 25318.71588193 .00080289 00000-0 14345-2 0 9993
2 66070 53.1598 61.0662 0000806 77.1167 282.9932 15.49355242 5297
Epoch: Nov 14, 2025 • Age: 10 hours

Current Status

Altitude 437.4 km
Velocity 7.65 km/s
Sub-Earth Point -53.05°S, 147.59°W
Launch Date Oct 19, 2025
Age 26 days
Type internet

Technical Details

Classification Payload
Mass 575.00 kg
Dry Mass 530.00 kg
Total Mass 575.00 kg
Length 0.30 m
Diameter 4.10 m
Span 29.00 m
Shape Box + pan
Manufacturer SPXS
Bus Type Starlink V2MO
Phase Status In Orbit
Owner/State SPXS/US

Large Constellations

Loading constellations...